"Time","Temp","Dewpoint","Humidity","Pressure","Direction","Speed","Gust","Precip","PrecipRate"
"00:04:56","77.1","71.2","82","29.82","190","4.6","10.8","0.00","0.00"
"00:09:57","76.9","71.3","82.9","29.82","196","5.4","12","0.00","0.00"
"00:14:57","76.6","71","83","29.82","196","3.9","8.4","0.00","0.00"
"00:19:59","76.4","70.9","83","29.82","200","4.2","10.8","0.00","0.00"
"00:24:58","76.3","70.8","83","29.82","203","4.4","10.8","0.00","0.00"
"00:29:57","76.2","70.7","83","29.82","194","2.4","8.4","0.00","0.00"
"00:34:56","76","70.5","82.9","29.82","194","1.9","4.8","0.00","0.00"
"00:39:57","75.9","70","82","29.82","206","2.4","7.2","0.00","0.00"
"00:44:56","75.8","69.9","82","29.83","214","2","7.2","0.00","0.00"
"00:49:56","75.8","69.9","82","29.83","248","1.6","5.8","0.00","0.00"
"00:54:59","75.7","69.8","82","29.83","212","2.4","6","0.00","0.00"
"00:59:58","75.6","69.7","82","29.83","195","2.5","7.2","0.00","0.00"
"01:04:58","75.5","69.4","81.4","29.83","196","3.3","8.4","0.00","0.00"
"01:09:56","75.4","69.4","81.6","29.83","186","2.6","6","0.00","0.00"
"01:14:56","75.3","69.3","81.6","29.83","184","2.2","6","0.00","0.00"
"01:19:56","75.2","69","81","29.83","179","1.8","6","0.00","0.00"
"01:24:59","75.1","68.9","81","29.83","192","2.1","4.6","0.00","0.00"
"01:29:59","75","68.8","81","29.83","195","1.2","3.6","0.00","0.00"
"01:34:58","74.9","68.7","81","29.82","195","1.1","3.6","0.00","0.00"
"01:39:58","74.8","68.6","81","29.82","196","0.8","3.6","0.00","0.00"
"01:44:58","74.7","68.5","81","29.83","196","0.4","2.4","0.00","0.00"
"01:49:57","74.6","68.6","81.9","29.83","196","0.3","2.4","0.00","0.00"
"01:54:57","74.4","68.3","81.3","29.83","196","0.3","2.4","0.00","0.00"
"01:59:56","74.3","68.4","81.9","29.83","196","0.4","2.4","0.00","0.00"
"02:04:56","74.2","68.3","82","29.83","196","0.3","2.4","0.00","0.00"
"02:09:58","74.1","68.3","82","29.83","196","0","0","0.00","0.00"
"02:14:58","73.9","68.1","82","29.83","196","0","0","0.00","0.00"
"02:19:58","73.7","68","82.6","29.83","196","0","0","0.00","0.00"
"02:24:57","73.4","67.9","83","29.83","196","0","0","0.00","0.00"
"02:29:57","73.2","68","83.7","29.83","196","0","0","0.00","0.00"
"02:34:56","73","67.9","84","29.82","196","0","0","0.00","0.00"
"02:39:56","72.8","67.8","84.5","29.82","194","0.1","1.2","0.00","0.00"
"02:44:59","72.6","67.8","85","29.82","194","0.3","2.4","0.00","0.00"
"02:49:59","72.3","67.6","85.3","29.82","194","0.4","2.4","0.00","0.00"
"02:54:59","72","67.6","86","29.82","194","0.8","2.4","0.00","0.00"
"02:59:58","71.7","67.5","86.6","29.82","194","0.3","2.4","0.00","0.00"
"03:04:59","71.6","67.5","87","29.81","194","0","1.2","0.00","0.00"
"03:09:57","71.4","67.3","87","29.81","194","0.3","1.2","0.00","0.00"
"03:14:57","71.2","67.1","87","29.81","194","0","0","0.00","0.00"
"03:19:57","71.1","67.4","88","29.81","194","0","0","0.00","0.00"
"03:24:56","70.9","67.2","88","29.81","194","0","0","0.00","0.00"
"03:29:56","70.8","67.1","88","29.82","194","0","0","0.00","0.00"
"03:34:59","70.7","67","88.2","29.82","194","0.5","2.4","0.00","0.00"
"03:39:59","70.4","67","89","29.82","194","0","0","0.00","0.00"
"03:44:58","70.4","67","89.2","29.82","194","0","1.2","0.00","0.00"
"03:49:58","70.4","67.3","90","29.82","194","0","1.2","0.00","0.00"
"03:54:59","70.3","67.2","90","29.82","194","0","1.2","0.00","0.00"
"03:59:58","70.4","67.5","90.8","29.83","194","0.2","1.2","0.00","0.00"
"04:04:56","70.3","67.3","90.3","29.83","194","0","0","0.00","0.00"
"04:09:58","70.1","67","90","29.83","194","0.1","1.2","0.00","0.00"
"04:14:56","69.8","66.9","90.4","29.83","194","0.1","1.2","0.00","0.00"
"04:19:56","69.6","66.9","90.9","29.83","194","0","0","0.00","0.00"
"04:24:58","69.5","66.8","91.2","29.83","194","0","0","0.00","0.00"
"04:29:59","69.3","66.9","92","29.84","194","0","0","0.00","0.00"
"04:34:58","69.2","66.8","92","29.84","194","0","0","0.00","0.00"
"04:39:58","69.2","66.9","92.4","29.84","194","0.1","1.2","0.00","0.00"
"04:44:58","69.2","67","92.8","29.84","194","0","0","0.00","0.00"
"04:49:57","69","66.7","92.1","29.84","194","0","0","0.00","0.00"
"04:54:57","68.9","66.7","92.7","29.84","194","0","0","0.00","0.00"
"04:59:56","68.8","66.7","93","29.85","194","0.4","2.4","0.00","0.00"
"05:04:56","68.8","66.7","93","29.85","194","0.1","1.2","0.00","0.00"
"05:09:59","68.8","66.7","93","29.85","194","0.1","1.2","0.00","0.00"
"05:14:59","68.7","66.6","93","29.86","194","0.1","1.2","0.00","0.00"
"05:19:58","68.6","66.5","93","29.86","194","0","0","0.00","0.00"
"05:24:58","68.6","66.5","93","29.86","194","0","0","0.00","0.00"
"05:29:58","68.5","66.4","93","29.86","194","0","0","0.00","0.00"
"05:34:57","68.5","66.5","93.3","29.86","194","0","0","0.00","0.00"
"05:39:58","68.3","66.2","93","29.86","194","0","0","0.00","0.00"
"05:44:57","68.3","66.5","93.9","29.87","194","0","0","0.00","0.00"
"05:49:57","68.3","66.5","94","29.87","194","0.3","3.6","0.00","0.00"
"05:54:56","68.4","66.5","93.6","29.87","194","0.1","2.4","0.00","0.00"
"05:59:56","68.6","66.5","93","29.87","194","0.1","2.3","0.00","0.00"
"06:04:59","68.7","66.6","93","29.87","194","0.4","3.6","0.00","0.00"
"06:09:59","68.8","66.7","93","29.87","194","0","0","0.00","0.00"
"06:14:59","68.9","66.8","93","29.88","194","0","0","0.00","0.00"
"06:19:58","68.9","66.7","92.8","29.88","194","0","0","0.00","0.00"
"06:24:58","68.9","66.6","92.3","29.88","194","0","0","0.00","0.00"
"06:29:57","68.9","66.6","92.4","29.89","194","0","0","0.00","0.00"
"06:34:56","69","66.9","93","29.89","194","0","0","0.00","0.00"
"06:39:56","69.1","67","93","29.89","194","0","0","0.00","0.00"
"06:44:58","69.3","67.2","93","29.89","173","0","1.2","0.00","0.00"
"06:49:57","69.5","67.1","92","29.89","173","0.5","2.4","0.00","0.00"
"06:54:59","69.6","67.2","92","29.89","173","0.5","2.4","0.00","0.00"
"06:59:58","69.6","67","91.3","29.89","173","0.1","1.2","0.00","0.00"
"07:04:57","69.7","67","91","29.89","173","0.2","1.2","0.00","0.00"
"07:09:59","69.8","67.2","91.3","29.89","173","0","0","0.00","0.00"
"07:14:59","70","67.2","91","29.89","173","0","0","0.00","0.00"
"07:19:58","70.2","67.6","91.5","29.89","173","0","0","0.00","0.00"
"07:24:56","70.5","67.7","91","29.89","173","0","0","0.00","0.00"
"07:29:59","71.1","68.3","91","29.89","173","0","0","0.00","0.00"
"07:34:59","71.6","68.3","89.4","29.89","173","0.1","2.4","0.00","0.00"
"07:39:58","72","68.3","88.5","29.89","165","2","4.8","0.00","0.00"
"07:44:56","72.4","68.5","87.8","29.89","147","1","4.6","0.00","0.00"
"07:49:59","72.8","68.8","87.2","29.89","119","1.1","3.6","0.00","0.00"
"07:54:57","73.1","68.8","86","29.89","137","1.8","4.8","0.00","0.00"
"07:59:57","73.6","69.2","86.2","29.89","146","0.5","3.5","0.00","0.00"
"08:04:56","74.1","69.4","85.4","29.89","146","0.7","2.4","0.00","0.00"
"08:09:59","74.3","69.2","84.3","29.89","146","0.9","3.6","0.00","0.00"
"08:14:57","74.4","69.2","83.9","29.90","146","1.6","3.6","0.00","0.00"
"08:19:56","74.7","69.5","84","29.90","146","0.2","1.2","0.00","0.00"
"08:24:58","75.2","69.8","83.5","29.90","159","1.3","6","0.00","0.00"
"08:29:57","75.6","69.6","81.7","29.90","185","1.8","5.8","0.00","0.00"
"08:34:59","75.8","69.7","81.4","29.90","185","2.3","4.8","0.00","0.00"
"08:39:58","76","69.9","81.4","29.90","185","1.8","6","0.00","0.00"
"08:44:56","76.3","69.8","80.4","29.90","184","1.4","5.8","0.00","0.00"
"08:49:58","76.7","70.2","80.3","29.90","171","1.9","4.8","0.00","0.00"
"08:54:56","77.1","70.2","79.2","29.90","212","1.1","3.6","0.00","0.00"
"08:59:58","77.4","70.4","79","29.90","192","1.1","4.8","0.00","0.00"
"09:04:58","77.8","70.6","78.5","29.90","189","1.2","3.6","0.00","0.00"
"09:09:56","78.1","70.6","77.7","29.90","189","1","3.6","0.00","0.00"
"09:14:59","78.6","70.9","77.4","29.90","189","0.9","3.6","0.00","0.00"
"09:19:59","79.1","71.2","76.8","29.89","189","0.5","2.4","0.00","0.00"
"09:24:56","79.4","71","75.3","29.89","190","1.3","4.8","0.00","0.00"
"09:29:59","79.6","70.6","74.2","29.89","191","1","4.6","0.00","0.00"
"09:34:59","79.7","70.4","73.2","29.89","191","2.1","3.6","0.00","0.00"
"09:39:59","79.9","70.9","73.9","29.89","205","1.1","4.8","0.00","0.00"
"09:44:58","80.2","71","73.5","29.89","336","1.1","4.6","0.00","0.00"
"09:49:58","80.6","71.2","73.1","29.89","224","2","4.8","0.00","0.00"
"09:54:57","81","71.2","72.2","29.89","188","2.6","6","0.00","0.00"
"09:59:56","81.3","71.4","72","29.89","190","1.8","4.8","0.00","0.00"
"10:04:56","81.8","71.9","72.1","29.88","227","2.2","7.2","0.00","0.00"
"10:09:56","82.1","72.1","71.7","29.88","215","2.4","4.8","0.00","0.00"
"10:14:56","82.4","72","71","29.88","208","1.9","3.6","0.00","0.00"
"10:19:59","82.6","72.1","70.5","29.88","304","2.5","8.4","0.00","0.00"
"10:24:58","82.7","72.1","70.5","29.88","336","3.4","7.2","0.00","0.00"
"10:29:57","82.8","72","69.9","29.88","344","2.6","8.4","0.00","0.00"
"10:34:56","83","72.1","69.9","29.88","325","2.7","8.1","0.00","0.00"
"10:39:56","83","72.5","70.7","29.88","278","3.1","7.2","0.00","0.00"
"10:44:59","83.4","72.3","69.4","29.88","293","2.9","7.2","0.00","0.00"
"10:49:58","83.5","72.3","68.9","29.88","275","2.2","6","0.00","0.00"
"10:54:57","83.7","72.5","69.3","29.88","290","1.4","4.8","0.00","0.00"
"10:59:57","84","72.7","68.7","29.89","285","3.1","6","0.00","0.00"
"11:04:57","84.3","72.8","68.6","29.89","309","1.8","6","0.00","0.00"
"11:09:56","84.3","73.1","69.3","29.89","279","2.6","4.8","0.00","0.00"
"11:14:59","84.8","73.6","69.3","29.90","239","2.8","6","0.00","0.00"
"11:19:59","84.8","72.7","67.2","29.90","262","3.5","6","0.00","0.00"
"11:24:58","84.5","72.9","68.4","29.90","347","2.2","6","0.00","0.00"
"11:29:57","84.8","72.9","67.6","29.90","343","2.3","7.2","0.00","0.00"
"11:34:56","85.4","73.7","68.3","29.90","265","1.3","4.8","0.00","0.00"
"11:39:56","86","73.9","67.2","29.90","209","2.1","7.2","0.00","0.00"
"11:44:59","86.2","73.5","66","29.90","212","3.3","6.9","0.00","0.00"
"11:49:59","86.6","73.2","64.6","29.90","198","2.3","6","0.00","0.00"
"11:54:57","86.1","72.1","63.1","29.90","190","1.5","3.6","0.00","0.00"
"11:59:56","85.7","72","63.7","29.90","289","1.9","6","0.00","0.00"
"12:04:58","86.1","72.8","64.7","29.90","338","0.6","3.6","0.00","0.00"
"12:09:57","87.2","73.4","63.7","29.90","259","2","6","0.00","0.00"
"12:14:59","88.1","73.3","61.7","29.90","169","2.7","6","0.00","0.00"
"12:19:59","87.1","71.8","60.7","29.89","154","0.5","4.6","0.00","0.00"
"12:24:58","86.8","72.3","62.3","29.89","180","1.1","3.6","0.00","0.00"
"12:29:58","86.8","72.6","62.8","29.89","181","1.1","3.6","0.00","0.00"
"12:34:57","87.3","73.2","63.1","29.89","219","2.6","6","0.00","0.00"
"12:39:57","88","73.3","61.9","29.89","230","2.5","7.2","0.00","0.00"
"12:44:57","87.8","73.5","62.9","29.89","258","2.2","6","0.00","0.00"
"12:49:57","87.9","73.7","63","29.89","282","2.2","3.6","0.00","0.00"
"12:54:56","88","73.7","62.8","29.89","282","2.6","4.8","0.00","0.00"
"12:59:55","88.1","73.3","61.8","29.89","225","3.1","6","0.00","0.00"
"13:04:57","88","73.6","62.4","29.89","251","2.7","4.8","0.00","0.00"
"13:09:56","88.5","74.1","62.6","29.89","255","1.9","4.8","0.00","0.00"
"13:14:57","89.1","74.7","62.6","29.89","257","3.1","8.4","0.00","0.00"
"13:19:58","89.2","74.1","61.3","29.89","281","1.9","4.8","0.00","0.00"
"13:24:57","89.3","73.3","59.4","29.89","249","2.6","8.4","0.00","0.00"
"13:29:57","89.7","73.2","58.4","29.89","213","2.9","7.2","0.00","0.00"
"13:34:57","90","72.8","57.1","29.89","157","2.8","6.9","0.00","0.00"
"13:39:58","90.1","74","59.5","29.89","177","2.5","7.2","0.00","0.00"
"13:44:58","89.5","73.8","59.8","29.89","174","1","4.6","0.00","0.00"
"13:49:59","89.9","73.9","59.6","29.88","174","1","3.6","0.00","0.00"
"13:54:58","90.5","74.6","59.7","29.88","182","2.1","6","0.00","0.00"
"13:59:58","90.9","74.3","58.3","29.88","209","3.5","7.2","0.00","0.00"
"14:04:59","91.2","74.4","58","29.87","199","2.1","5.8","0.00","0.00"
"14:09:59","91.6","74.5","57.7","29.87","176","2.4","6","0.00","0.00"
"14:14:59","91.4","75.2","59.4","29.87","177","1.3","5.8","0.00","0.00"
"14:19:56","91","74.2","58","29.87","187","1.2","3.6","0.00","0.00"
"14:24:56","90.9","74.7","59.1","29.87","229","2.3","6","0.00","0.00"
"14:29:56","90.8","73.8","57.5","29.87","250","2.5","6","0.00","0.00"
"14:34:55","90.7","73.8","57.8","29.86","219","3.3","7.2","0.00","0.00"
"14:39:57","90.3","74.4","59.8","29.86","222","0.4","3.5","0.00","0.00"
"14:44:56","91","74.9","59.3","29.86","229","3.2","7.2","0.00","0.00"
"14:49:56","91.1","74.7","58.8","29.86","241","3.1","7.2","0.00","0.00"
"14:54:56","90.9","74","57.7","29.86","216","2.4","7.2","0.00","0.00"
"14:59:56","90.7","73.7","57.7","29.86","219","1.5","4.8","0.00","0.00"
"15:04:56","90.7","74.1","58.4","29.86","318","2.2","4.8","0.00","0.00"
"15:09:55","90.8","74.4","58.8","29.86","240","1.8","6","0.00","0.00"
"15:14:56","90.6","74","58.3","29.86","173","3.6","6","0.00","0.00"
"15:19:56","90.2","73.9","59","29.86","166","3","7.2","0.00","0.00"
"15:24:56","89.9","74","59.7","29.86","206","3.1","6.9","0.00","0.00"
"15:29:59","89.8","74.1","60.1","29.86","153","1.7","6","0.00","0.00"
"15:34:56","89.9","74.5","60.8","29.86","185","2.5","7.2","0.00","0.00"
"15:39:57","89.9","74.1","60","29.86","171","2","5.8","0.00","0.00"
"15:44:56","89.7","73.8","59.7","29.86","191","3","6","0.00","0.00"
"15:49:56","89.5","73.5","59.5","29.85","215","2.7","6","0.00","0.00"
"15:54:56","89.3","73.9","60.6","29.85","243","2.4","4.8","0.00","0.00"
"15:59:56","89.3","73.4","59.5","29.85","205","1.9","6","0.00","0.00"
"16:04:56","89.4","73.7","59.9","29.85","227","2.5","6","0.00","0.00"
"16:09:56","89.4","73.4","59.5","29.85","263","1.8","4.8","0.00","0.00"
"16:14:57","89.5","73.6","59.5","29.86","262","2.8","4.8","0.00","0.00"
"16:19:57","89.9","73.7","59","29.86","200","2.2","4.8","0.00","0.00"
"16:24:57","90.7","74.2","58.6","29.86","260","3.5","7.2","0.00","0.00"
"16:29:57","90.5","73.6","57.8","29.86","233","2.4","6","0.00","0.00"
"16:34:57","89.9","73.6","58.8","29.84","182","1.4","3.6","0.00","0.00"
"16:39:57","89.5","73.6","59.6","29.84","169","1.3","3.6","0.00","0.00"
"16:44:57","89.2","74","61","29.85","169","1","3.6","0.00","0.00"
"16:49:58","88.8","73.2","60.1","29.85","169","0.3","2.4","0.00","0.00"
"16:54:57","88.5","73.3","60.9","29.85","170","1.1","4.8","0.00","0.00"
"16:59:58","88.3","73.1","61","29.86","171","0.8","3.6","0.00","0.00"
"17:04:58","88.2","73.1","61.2","29.86","114","1.3","4.8","0.00","0.00"
"17:09:58","88","73.5","62.3","29.86","9","2.4","8.4","0.00","0.00"
"17:14:57","86.6","72.4","62.8","29.86","308","6","16.1","0.00","0.00"
"17:19:57","82.6","71.6","69.4","29.86","351","7.7","19.6","0.00","0.00"
"17:24:59","79.1","71.2","76.6","29.86","279","3.9","12","0.00","0.00"
"17:29:58","76.8","70.6","81","29.91","198","3.1","7.2","0.00","0.00"
"17:34:57","75.7","70.6","84.3","29.91","131","2.2","7.2","0.00","0.00"
"17:39:56","75.2","70","84","29.91","71","2.7","7.2","0.00","0.00"
"17:44:59","74.4","69.7","85.3","29.91","99","2.9","6","0.00","0.00"
"17:49:58","73.7","69.6","86.9","29.90","13","1.3","4.6","0.00","0.00"
"17:54:56","73.5","69.7","88","29.90","28","1.5","3.6","0.00","0.00"
"17:59:59","73.5","70.1","89","29.90","38","0.8","3.6","0.00","0.00"
"18:04:58","73.5","70.1","89","29.89","42","1.2","3.6","0.00","0.00"
"18:09:56","73.5","70.1","89","29.89","41","1.2","3.6","0.00","0.00"
"18:14:59","73.8","70.2","88.6","29.89","11","1.4","4.8","0.00","0.00"
"18:19:57","74.1","70.3","88","29.89","10","0.5","2.4","0.00","0.00"
"18:24:59","74.8","70.6","86.8","29.89","16","0.7","3.6","0.00","0.00"
"18:29:57","75.3","70.4","84.8","29.89","78","1","6","0.00","0.00"
"18:34:59","75.8","70.7","84.1","29.89","130","2.1","6","0.00","0.00"
"18:39:58","76.1","70.6","83.2","29.89","125","1.1","6","0.00","0.00"
"18:44:56","76.2","70.8","83.4","29.89","127","1.3","6","0.00","0.00"
"18:49:59","76.1","70.5","82.8","29.89","128","1.9","4.8","0.00","0.00"
"18:54:57","75.7","70.2","83.2","29.89","128","1.7","4.6","0.00","0.00"
"18:59:59","75.3","70.1","84","29.89","128","0.3","2.4","0.00","0.00"
"19:04:58","75.1","69.9","84","29.88","128","0.4","2.4","0.00","0.00"
"19:09:56","74.9","70.1","84.8","29.88","128","0.2","2.4","0.00","0.00"
"19:14:59","74.8","70.1","85.3","29.88","128","0.1","2.3","0.00","0.00"
"19:19:59","74.8","70.3","86","29.88","324","0","0","0.00","0.00"
"19:24:58","74.8","70.3","86","29.88","306","0.9","3.6","0.00","0.00"
"19:29:56","74.9","70.4","86","29.89","290","0.9","3.5","0.00","0.00"
"19:34:59","75","70.5","85.8","29.89","300","0.4","2.4","0.00","0.00"
"19:39:58","75.1","70.5","85.7","29.89","312","0.8","3.6","0.00","0.00"
"19:44:56","75.2","70.7","86","29.90","311","0.2","2.4","0.00","0.00"
"19:49:59","75.3","70.8","86","29.90","304","0","0","0.00","0.00"
"19:54:57","75.3","70.9","86.2","29.90","250","0.3","2.4","0.00","0.00"
"19:59:56","75.4","71.2","86.7","29.90","250","0.2","2.4","0.00","0.00"
"20:04:59","75.4","71.3","86.9","29.90","250","0","0","0.00","0.00"
"20:09:57","75.2","71.1","87","29.90","250","0","0","0.00","0.00"
"20:14:57","75.1","71.2","87.7","29.90","250","0","0","0.00","0.00"
"20:19:56","75","71.2","88","29.89","250","0","0","0.00","0.00"
"20:24:56","74.8","71","88","29.89","252","0","0","0.00","0.00"
"20:29:58","74.7","71","88.1","29.89","217","0","1.2","0.00","0.00"
"20:34:59","74.6","71.1","89","29.89","217","0.1","1.2","0.00","0.00"
"20:39:59","74.5","71","89","29.89","217","0","0","0.00","0.00"
"20:44:58","74.3","70.8","89","29.89","217","0","0","0.00","0.00"
"20:49:58","74.1","71","90","29.89","217","0","0","0.00","0.00"
"20:54:57","73.8","70.7","90.1","29.89","217","0","0","0.00","0.00"
"20:59:57","73.5","70.7","91","29.89","217","0","0","0.00","0.00"
"21:04:57","73.4","70.6","91","29.89","217","0","0","0.00","0.00"
"21:09:59","73.1","70.3","91","29.89","217","0","0","0.00","0.00"
"21:14:59","73","70.4","91.9","29.89","217","0","0","0.00","0.00"
"21:19:59","72.8","70.3","92","29.89","217","0","0","0.00","0.00"
"21:24:58","72.8","70.5","92.5","29.89","217","0","0","0.00","0.00"
"21:29:58","72.8","70.7","93","29.90","217","0","0","0.00","0.00"
"21:34:57","72.6","70.5","93","29.90","217","0","0","0.00","0.00"
"21:39:58","72.6","70.5","93","29.90","217","0","0","0.00","0.00"
"21:44:57","72.5","70.4","93","29.90","217","0","0","0.00","0.00"
"21:49:56","72.4","70.3","93","29.90","217","0","0","0.00","0.00"
"21:54:56","72.3","70.2","93","29.90","217","0","0","0.00","0.00"
"21:59:59","72.1","70.3","93.9","29.91","217","0","0","0.00","0.00"
"22:04:59","72","70.2","94","29.91","217","0","0","0.00","0.00"
"22:09:57","72","70.2","94","29.91","217","0","0","0.00","0.00"
"22:14:57","71.8","70","94","29.91","217","0.6","3.6","0.00","0.00"
"22:19:57","71.7","69.9","94","29.91","217","0.8","3.6","0.00","0.00"
"22:24:56","71.6","70","94.7","29.91","217","0","0","0.00","0.00"
"22:29:56","71.6","70.1","95","29.91","217","0.4","2.4","0.00","0.00"
"22:34:59","71.6","70.1","95","29.91","217","0.5","3.6","0.00","0.00"
"22:39:59","71.7","70.2","95","29.91","217","0.1","1.2","0.00","0.00"
"22:44:58","71.6","70.1","95","29.93","217","0.2","1.2","0.00","0.00"
"22:49:58","71.6","70.1","95","29.93","217","0.5","2.4","0.00","0.00"
"22:54:58","71.6","70.1","95","29.93","217","0.3","2.4","0.00","0.00"
"22:59:57","71.5","70","95","29.93","217","0","0","0.00","0.00"
"23:04:57","71.5","70","95","29.92","217","0","1.2","0.00","0.00"
"23:09:59","71.4","69.9","95","29.92","217","0.1","1.2","0.00","0.00"
"23:14:59","71.3","69.8","95","29.93","217","0.1","1.2","0.00","0.00"
"23:19:59","71.2","69.7","95","29.93","217","0","1.2","0.00","0.00"
"23:24:58","71.1","69.6","95","29.93","217","0.7","2.4","0.00","0.00"
"23:29:58","71.1","69.6","95","29.93","217","0.1","2.3","0.00","0.00"
"23:34:57","71","69.5","95","29.92","217","0","0","0.00","0.00"
"23:39:57","71","69.5","95","29.92","217","0.1","1.2","0.00","0.00"
"23:44:56","71","69.5","95","29.92","217","0","1.2","0.00","0.00"
"23:49:56","70.8","69.3","95","29.92","217","0","0","0.00","0.00"
"23:54:59","70.7","69.2","95","29.92","217","0.1","1.2","0.00","0.00"
